[[{"header":{"parameterUnit":"m.s-1","parameterCategory":2,"la1":30.2991,"la2":30.254,"lo1":-89.0895,"lo2":-89.0444,"dy":0.0017,"dx":0.0017,"nx":28,"ny":28,"refTime":"2025-04-30T09:00:00:Z","depth":"0","parameterNumber":2,"parameterNumberName":"U-component_of_CURRENTS"},"data":[0,0,0,0,0,0,0,0,0,0,0,0,0,0,0,0,0,0,0,0,0,0,0,0,0,0,0,0,0,0,0,0,0,0,0,0,0,0,0,0,0,0,0,0,0,0,0,0,0,0,0,0,0,0,0,0,0,0,0.357,0.357,0,0.358,0.358,0.358,0.3557,0.3556,0.3556,0.3555,0.3544,0.3544,0.3544,0,0,0,0,0,0,0,0,0,0,0,0,0,0.3542,0.3542,0.357,0.357,0.3571,0.358,0.358,0.358,0.3557,0.3556,0.3556,0.3555,0.3544,0.3544,0.3544,0,0,0,0,0,0,0,0,0,0,0,0,0,0.3551,0.3542,0.357,0.3562,0.3562,0.358,0.358,0.358,0.3557,0.3556,0.3556,0.3555,0.3544,0.3544,0.3544,0.3562,0,0,0.3545,0.3545,0,0,0,0,0,0,0,0,0.355,0.3552,0.3563,0.3563,0.3562,0.3568,0.3566,0.3573,0.3557,0.3557,0.3555,0.3554,0.3552,0.3552,0.3553,0.3562,0.3561,0.3545,0.3546,0.3546,0.3546,0,0,0,0,0,0,0,0.355,0.3551,0.3572,0.3563,0.3563,0.3562,0.3562,0.3567,0.3557,0.3557,0.3556,0.356,0.3551,0.3552,0.3552,0.3561,0.3545,0.3546,0.3546,0.3546,0.3622,0.3624,0,0,0,0,0,0,0.3553,0.3551,0.3571,0.3572,0.3557,0.3563,0.3563,0.3565,0.3557,0.3556,0.3561,0.3559,0.3552,0.3552,0.3552,0.3602,0.3546,0.3546,0.3546,0.362,0.3622,0.3624,0,0,0,0,0,0,0.3553,0.3555,0.3571,0.3563,0.3566,0.3564,0.3567,0.3566,0.3573,0.3561,0.3559,0.357,0.3552,0.3551,0.3571,0.36,0.3546,0.3546,0.3618,0.3621,0.3623,0.3682,0,0,0,0,0,0,0.3552,0.3555,0.3562,0.3564,0.3566,0.3592,0.3568,0.3567,0.3578,0.3575,0.3568,0.3566,0.3551,0.3571,0.3572,0.3599,0.3547,0.3616,0.3619,0.3623,0.3678,0.3687,0.3694,0,0,0,0,0,0.3551,0.3565,0.3563,0.3565,0.3575,0.3593,0.3595,0.3589,0.3579,0.359,0.3588,0.3566,0.3594,0.3573,0.3573,0.3601,0.3614,0.3618,0.3622,0.3675,0.3685,0.3694,0,0,0,0,0,0,0.3556,0.3565,0.3561,0.3578,0.3589,0.359,0.3603,0.3599,0.3606,0.3606,0.3587,0.3586,0.3616,0.3605,0.3583,0.3636,0.3602,0.3606,0.3642,0.3651,0.3659,0.3682,0.3547,0,0,0,0,0,0.3562,0.3576,0.3583,0.3598,0.3605,0.3606,0.3614,0.3614,0.3619,0.3621,0.3614,0.3618,0.3634,0.3639,0.3647,0.3674,0.3705,0.3694,0.3702,0.3709,0.373,0.3821,0.384,0.3638,0.3638,0.3638,0,0,0.3566,0.3576,0.3582,0.3601,0.3607,0.3636,0.3608,0.3629,0.3653,0.362,0.3647,0.3646,0.3649,0.3681,0.3693,0.3673,0.3782,0.3715,0.372,0.3737,0.3828,0.3848,0.3865,0.3641,0.364,0.364,0,0,0.3603,0.3594,0.3628,0.3642,0.3664,0.3662,0.3673,0.3681,0.3683,0.3711,0.3699,0.3723,0.3732,0.3746,0.3754,0.3816,0.3824,0.3813,0.3868,0.3957,0.3975,0.399,0.4048,0.4068,0.3814,0.3814,0.3814,0,0.3613,0.3652,0.3641,0.3683,0.3703,0.3679,0.3725,0.3724,0.3738,0.3767,0.3729,0.379,0.377,0.384,0.3845,0.3836,0.388,0.3826,0.3969,0.3985,0.4001,0.4056,0.4078,0.3817,0.3817,0.3816,0.3816,0,0.368,0.3712,0.3732,0.3773,0.3793,0.3822,0.3825,0.3846,0.3839,0.3852,0.3911,0.3891,0.3941,0.3923,0.3893,0.3994,0.3987,0.3971,0.3944,0.4025,0.4077,0.4099,0.3822,0.3821,0.382,0.3819,0,0,0.3703,0.3767,0.3777,0.3807,0.3842,0.386,0.3912,0.3961,0.4012,0.4009,0.4104,0.4084,0.4086,0.4096,0.4069,0.4108,0.4222,0.408,0.4083,0.4137,0.4414,0.4343,0.436,0.4239,0.4244,0.4247,0.4403,0,0.3761,0.3847,0.3872,0.3941,0.3976,0.3989,0.404,0.4083,0.4107,0.4187,0.419,0.4248,0.4148,0.4178,0.4211,0.4235,0.4285,0.4181,0.4328,0.4332,0.4261,0.4385,0.4198,0.4316,0.4424,0.4428,0.4431,0,0.3819,0.3869,0.3948,0.4024,0.4044,0.4079,0.4165,0.4214,0.4316,0.4354,0.4425,0.4434,0.4503,0.4405,0.4496,0.444,0.4439,0.4431,0.4438,0.4371,0.4304,0.4256,0.4352,0.4237,0.4464,0.4461,0.4459,0,0.3815,0.3918,0.3974,0.3996,0.4079,0.4125,0.4174,0.4265,0.4326,0.4473,0.4555,0.4633,0.4686,0.4718,0.4672,0.4618,0.4773,0.471,0.4647,0.4641,0.451,0.4485,0.4513,0.4802,0.4802,0.4801,0.4801,0,0.3845,0.3887,0.3969,0.399,0.4064,0.4135,0.4227,0.4299,0.4443,0.4539,0.4633,0.4717,0.4766,0.4836,0.4791,0.4794,0.4883,0.4697,0.4699,0.4522,0.4497,0.4411,0.436,0.4807,0.4806,0.4805,0.4804,0,0.3808,0.3866,0.3922,0.402,0.4048,0.4095,0.4226,0.4302,0.4452,0.46,0.4662,0.4825,0.4919,0.4946,0.5011,0.4937,0.4816,0.492,0.469,0.466,0.4468,0.4427,0.4335,0.4207,0.4907,0.4907,0.4906,0,0.3785,0.3813,0.3905,0.3931,0.3963,0.4051,0.4113,0.4273,0.4358,0.4625,0.4693,0.4872,0.4945,0.5047,0.4972,0.496,0.4799,0.4775,0.4628,0.4472,0.443,0.4254,0.4139,0.4478,0.4474,0.4471,0.4468,0,0.3737,0.3767,0.3812,0.3874,0.3924,0.3995,0.4098,0.4161,0.4367,0.4495,0.4661,0.4764,0.4899,0.481,0.4826,0.4779,0.4554,0.4708,0.4623,0.4176,0.3912,0.3783,0.4346,0.444,0.4442,0.4445,0.4446,0.4447,0.3682,0.3699,0.3764,0.3803,0.3859,0.3907,0.3907,0.4032,0.4138,0.4261,0.4477,0.4525,0.4613,0.4605,0.4548,0.4364,0.4347,0.4209,0.42,0.4057,0.3841,0.4332,0.4373,0.4375,0.4377,0.4379,0.4381,0,0.3621,0.3656,0.3693,0.3724,0.3723,0.38,0.3864,0.3831,0.3853,0.3999,0.4091,0.4133,0.4094,0.4127,0.4048,0.3883,0.3681,0.3777,0.3489,0.3423,0.3941,0.3828,0.3658,0.3658,0.3658,0.3658,0.3658,0.3659,0.3596,0.3608,0.3624,0.3579,0.3583,0.352,0.3509,0.3481,0.3513,0.3474,0.3454,0.3545,0.3772,0.3823,0.3662,0.3559,0.3281,0.3117,0.313,0.3505,0.3543,0.358,0.3461,0.3218,0.3217,0.2436,0.243,0.2426]},{"header":{"parameterUnit":"m.s-1","parameterCategory":2,"la1":30.2991,"la2":30.254,"lo1":-89.0895,"lo2":-89.0444,"dy":0.0017,"dx":0.0017,"nx":28,"ny":28,"refTime":"2025-04-30T09:00:00:Z","depth":"0","parameterNumber":3,"parameterNumberName":"V-component_of_CURRENTS"},"data":[0,0,0,0,0,0,0,0,0,0,0,0,0,0,0,0,0,0,0,0,0,0,0,0,0,0,0,0,0,0,0,0,0,0,0,0,0,0,0,0,0,0,0,0,0,0,0,0,0,0,0,0,0,0,0,0,0,0,0.0343,0.0343,0,0.0308,0.0307,0.0307,0.0271,0.027,0.027,0.027,0.0187,0.0185,0.0183,0,0,0,0,0,0,0,0,0,0,0,0,0,0.0299,0.0301,0.0343,0.0343,0.0343,0.0308,0.0307,0.0306,0.0271,0.027,0.027,0.027,0.0188,0.0185,0.0183,0,0,0,0,0,0,0,0,0,0,0,0,0,0.0294,0.0301,0.0343,0.0323,0.0321,0.0308,0.0307,0.0306,0.0271,0.027,0.027,0.027,0.0188,0.0185,0.0182,0.0171,0,0,0.0173,0.0172,0,0,0,0,0,0,0,0,0.0295,0.0296,0.0326,0.0324,0.0322,0.0296,0.0261,0.026,0.0271,0.0287,0.027,0.0269,0.0221,0.0215,0.0206,0.0167,0.0164,0.0173,0.0171,0.017,0.0169,0,0,0,0,0,0,0,0.0295,0.0297,0.0326,0.0326,0.0323,0.0288,0.0287,0.026,0.0253,0.0285,0.0283,0.0284,0.0219,0.0209,0.0204,0.0162,0.0173,0.017,0.0169,0.0167,0.0112,0.0112,0,0,0,0,0,0,0.031,0.0298,0.0328,0.0326,0.031,0.029,0.0289,0.0302,0.0255,0.0248,0.0284,0.0282,0.0214,0.0207,0.0201,0.0205,0.017,0.0167,0.0165,0.0111,0.0112,0.0112,0,0,0,0,0,0,0.031,0.0314,0.0329,0.0312,0.0312,0.0292,0.0306,0.0302,0.0297,0.0255,0.0247,0.0285,0.0214,0.0205,0.0187,0.02,0.0166,0.0163,0.0111,0.0111,0.0112,0.02,0,0,0,0,0,0,0.0309,0.0314,0.0323,0.0314,0.0313,0.0334,0.0307,0.0301,0.0298,0.0296,0.0252,0.0244,0.0213,0.0192,0.0184,0.0196,0.0161,0.011,0.0111,0.0112,0.0197,0.0203,0.0209,0,0,0,0,0,0.0307,0.0329,0.0324,0.0327,0.0329,0.0336,0.0332,0.0313,0.0299,0.0305,0.0275,0.0246,0.019,0.019,0.0181,0.0192,0.011,0.0111,0.0112,0.0194,0.0202,0.0209,0,0,0,0,0,0,0.0311,0.0327,0.0321,0.0345,0.0345,0.0331,0.0333,0.0321,0.0301,0.0294,0.0252,0.0243,0.0231,0.0198,0.0199,0.0175,0.0144,0.0143,0.0209,0.0216,0.0223,0.025,0.0158,0,0,0,0,0,0.0318,0.034,0.0343,0.0361,0.0364,0.0348,0.0346,0.0337,0.0322,0.0313,0.0285,0.025,0.0225,0.0212,0.0183,0.0173,0.0145,0.0171,0.0177,0.0183,0.0198,0.0172,0.0178,0.0114,0.0114,0.0114,0,0,0.0322,0.0335,0.0345,0.0363,0.0358,0.0379,0.0346,0.0352,0.0366,0.0306,0.031,0.0271,0.0227,0.0217,0.0208,0.0193,0.0185,0.0184,0.0189,0.0202,0.0174,0.018,0.0186,0.0115,0.0115,0.0114,0,0,0.0355,0.0357,0.039,0.0398,0.0405,0.0398,0.0406,0.0398,0.039,0.0388,0.0349,0.0325,0.0285,0.0262,0.0243,0.0265,0.0219,0.0248,0.0304,0.0279,0.0284,0.0289,0.026,0.0261,0.0252,0.0252,0.0252,0,0.0358,0.0408,0.0397,0.0432,0.0447,0.0415,0.0453,0.0442,0.0428,0.0433,0.04,0.0357,0.031,0.0311,0.0311,0.0282,0.0257,0.0283,0.0289,0.0293,0.0296,0.0265,0.0266,0.0256,0.0256,0.0255,0.0255,0,0.0423,0.0457,0.0477,0.0516,0.0524,0.055,0.0541,0.0545,0.0525,0.0515,0.0508,0.0446,0.0423,0.0398,0.0357,0.036,0.0332,0.0302,0.0277,0.0309,0.0273,0.0272,0.0262,0.0261,0.026,0.0258,0,0,0.0454,0.0514,0.0521,0.0563,0.0574,0.0599,0.0615,0.0637,0.0674,0.0623,0.0666,0.0589,0.0551,0.0527,0.0471,0.0442,0.0426,0.0384,0.0381,0.0368,0.037,0.0334,0.0328,0.0398,0.0399,0.0399,0.0336,0,0.0513,0.0606,0.061,0.0691,0.0741,0.0721,0.0754,0.076,0.075,0.0779,0.0706,0.0719,0.0602,0.0606,0.0547,0.0475,0.0428,0.0446,0.033,0.0327,0.0302,0.0328,0.0343,0.0287,0.0334,0.0334,0.0334,0,0.0583,0.0642,0.0733,0.0813,0.0833,0.0865,0.0924,0.0954,0.0962,0.0958,0.0929,0.0881,0.0831,0.0734,0.0593,0.0611,0.0491,0.0417,0.0412,0.0351,0.029,0.0261,0.0282,0.011,0.0331,0.0331,0.0331,0,0.0638,0.0731,0.0812,0.0837,0.0911,0.0945,0.0984,0.1009,0.1068,0.1088,0.1138,0.1038,0.1031,0.0867,0.0663,0.0642,0.051,0.0464,0.0314,0.0309,0.0287,0.028,0.014,0.0359,0.0359,0.0359,0.0359,0,0.0714,0.0782,0.085,0.0899,0.1011,0.1029,0.1144,0.1165,0.1231,0.134,0.1242,0.1304,0.1065,0.095,0.0733,0.0519,0.055,0.0335,0.0297,0.0315,0.0313,0.0131,0.0013,0.0357,0.0357,0.0358,0.0358,0,0.077,0.0809,0.0916,0.1006,0.1042,0.1126,0.1259,0.1353,0.1399,0.1541,0.1565,0.1513,0.1383,0.1112,0.0867,0.0641,0.0317,0.0331,0.0363,0.0329,0.0044,-0.0069,-0.0267,-0.0348,0.0188,0.0187,0.0186,0,0.0811,0.0871,0.0994,0.1067,0.1112,0.124,0.1341,0.1424,0.1536,0.1683,0.1766,0.1698,0.1669,0.1277,0.0873,0.0496,0.0291,0.0255,0.0211,0.004,-0.0115,-0.0194,-0.0253,0.0211,0.0211,0.021,0.021,0,0.0891,0.0924,0.1013,0.1163,0.1275,0.1425,0.1572,0.1685,0.182,0.1957,0.2104,0.2106,0.1754,0.1383,0.0847,0.0586,0.0138,0.0233,0.0052,-0.0108,-0.0199,-0.0298,0.0232,0.0204,0.0205,0.0205,0.0206,0.0206,0.0942,0.1017,0.1127,0.1271,0.1409,0.1588,0.1725,0.1903,0.2114,0.2328,0.2326,0.2365,0.1835,0.113,0.0753,0.0105,0.009,-0.0086,-0.0208,-0.027,-0.0355,0.0161,0.0089,0.0088,0.0088,0.0088,0.0088,0,0.1011,0.1098,0.1234,0.1407,0.1566,0.1628,0.1869,0.2027,0.2288,0.2464,0.259,0.2343,0.1711,0.107,0.0183,-0.026,-0.0408,-0.0497,-0.0601,-0.064,-0.0174,-0.0178,-0.0306,-0.0306,-0.0306,-0.0306,-0.0306,-0.0305,0.105,0.1181,0.1252,0.1505,0.1633,0.1855,0.1995,0.2238,0.2406,0.2617,0.2632,0.26,0.2087,0.0549,-0.0442,-0.0656,-0.0949,-0.1044,-0.1188,-0.0872,-0.0842,-0.0813,-0.0842,-0.1108,-0.1109,-0.157,-0.1575,-0.1579]}],[{"header":{"parameterUnit":"m.s-1","parameterCategory":2,"la1":30.2991,"la2":30.254,"lo1":-89.0895,"lo2":-89.0444,"dy":0.0017,"dx":0.0017,"nx":28,"ny":28,"refTime":"2025-04-30T09:00:00:Z","depth":"2","parameterNumber":2,"parameterNumberName":"U-component_of_CURRENTS"},"data":[0,0,0,0,0,0,0,0,0,0,0,0,0,0,0,0,0,0,0,0,0,0,0,0,0,0,0,0,0,0,0,0,0,0,0,0,0,0,0,0,0,0,0,0,0,0,0,0,0,0,0,0,0,0,0,0,0,0,0.3065,0.3066,0,0.3092,0.3092,0.3092,0.3093,0.3093,0.3093,0.3093,0.3107,0.3108,0.3108,0,0,0,0,0,0,0,0,0,0,0,0,0,0.3033,0.3034,0.3065,0.3066,0.3066,0.3091,0.3092,0.3092,0.3093,0.3093,0.3093,0.3093,0.3107,0.3108,0.3108,0,0,0,0,0,0,0,0,0,0,0,0,0,0.305,0.3034,0.3065,0.3071,0.3072,0.3091,0.3092,0.3092,0.3093,0.3093,0.3093,0.3092,0.3107,0.3108,0.3109,0.3117,0,0,0.3111,0.3111,0,0,0,0,0,0,0,0,0.3049,0.3051,0.307,0.3071,0.3072,0.3091,0.3086,0.31,0.3093,0.3083,0.3093,0.3092,0.3102,0.3103,0.3106,0.3118,0.3118,0.3111,0.3111,0.3112,0.3112,0,0,0,0,0,0,0,0.3048,0.305,0.3074,0.3071,0.3072,0.3079,0.3081,0.3089,0.3092,0.3084,0.3085,0.3091,0.3102,0.3105,0.3106,0.3119,0.3111,0.3112,0.3112,0.3112,0.3201,0.3203,0,0,0,0,0,0,0.3048,0.3049,0.3073,0.3075,0.3062,0.308,0.3082,0.3083,0.3092,0.3094,0.3091,0.3091,0.3104,0.3105,0.3107,0.3168,0.3112,0.3112,0.3113,0.3199,0.3201,0.3203,0,0,0,0,0,0,0.3047,0.305,0.3072,0.3064,0.3068,0.3081,0.3082,0.3084,0.3101,0.3098,0.3099,0.3108,0.3104,0.3106,0.3135,0.3167,0.3113,0.3114,0.3197,0.32,0.3202,0.3258,0,0,0,0,0,0,0.3046,0.3049,0.3058,0.3064,0.3068,0.3096,0.3083,0.3085,0.3105,0.3105,0.3112,0.3113,0.3104,0.3134,0.3136,0.3167,0.3114,0.3194,0.3198,0.3201,0.3254,0.3263,0.327,0,0,0,0,0,0.3045,0.3056,0.3058,0.3062,0.3077,0.3097,0.31,0.3107,0.3106,0.312,0.313,0.3113,0.3158,0.3136,0.3138,0.317,0.3193,0.3197,0.3201,0.325,0.3261,0.327,0,0,0,0,0,0,0.3048,0.3058,0.306,0.3074,0.3091,0.3098,0.3114,0.3118,0.3136,0.3141,0.3133,0.3135,0.3175,0.3168,0.3144,0.3208,0.3174,0.3179,0.3212,0.3221,0.3229,0.3246,0.3115,0,0,0,0,0,0.3053,0.3063,0.3076,0.309,0.3099,0.311,0.3122,0.3129,0.3143,0.3151,0.3156,0.317,0.3192,0.3202,0.3216,0.3247,0.327,0.3272,0.328,0.3287,0.3303,0.3382,0.3399,0.3217,0.3217,0.3217,0,0,0.3056,0.3066,0.3071,0.3092,0.3103,0.313,0.3116,0.3143,0.3169,0.315,0.3189,0.3199,0.3208,0.3246,0.3263,0.3244,0.3348,0.3292,0.3297,0.3311,0.3388,0.3406,0.3422,0.322,0.3219,0.3219,0,0,0.3076,0.308,0.31,0.3119,0.3147,0.3155,0.3167,0.3187,0.3201,0.3238,0.3237,0.3271,0.3293,0.3312,0.3323,0.3386,0.339,0.3389,0.344,0.3516,0.3532,0.3546,0.3586,0.3604,0.339,0.339,0.3391,0,0.3085,0.3104,0.311,0.3141,0.3162,0.317,0.3203,0.3221,0.325,0.3281,0.3261,0.3335,0.3329,0.3396,0.3411,0.3405,0.344,0.3398,0.3527,0.3542,0.3555,0.3594,0.3612,0.3394,0.3393,0.3393,0.3393,0,0.3117,0.3141,0.3157,0.3194,0.3222,0.3248,0.3276,0.3312,0.3328,0.3353,0.3423,0.3425,0.3478,0.3474,0.3456,0.3551,0.3541,0.3529,0.3501,0.3577,0.3612,0.363,0.3398,0.3397,0.3396,0.3395,0,0,0.3108,0.3166,0.3172,0.3199,0.325,0.3272,0.3335,0.3394,0.3448,0.3479,0.3559,0.3581,0.3598,0.3613,0.3604,0.3647,0.375,0.3629,0.3631,0.3667,0.3909,0.3839,0.3851,0.3769,0.3773,0.3776,0.389,0,0.313,0.3184,0.3216,0.3274,0.3301,0.3348,0.3402,0.3465,0.3515,0.3596,0.363,0.3695,0.3647,0.368,0.3725,0.3757,0.3804,0.3719,0.3833,0.3836,0.3764,0.3873,0.355,0.3621,0.3908,0.3911,0.3913,0,0.3145,0.3179,0.3235,0.331,0.3328,0.3376,0.3477,0.3531,0.3651,0.3694,0.3785,0.3821,0.391,0.3848,0.3962,0.3917,0.3924,0.3927,0.3932,0.3864,0.3801,0.3595,0.3643,0.3943,0.3941,0.3939,0.3937,0,0.3114,0.3192,0.3233,0.3257,0.3345,0.3399,0.3458,0.357,0.3633,0.3779,0.3853,0.396,0.4023,0.4079,0.4094,0.4053,0.4205,0.4151,0.4091,0.4085,0.3831,0.3796,0.4236,0.4235,0.4235,0.4235,0.4235,0,0.311,0.3141,0.3225,0.3245,0.3308,0.339,0.349,0.3561,0.3701,0.3787,0.3906,0.3987,0.4087,0.4179,0.4174,0.4205,0.4284,0.4132,0.413,0.3838,0.3805,0.4095,0.4077,0.4239,0.4238,0.4237,0.4237,0,0.3062,0.3115,0.316,0.3257,0.329,0.334,0.3487,0.3557,0.3701,0.3828,0.3886,0.4052,0.4172,0.4252,0.4344,0.4298,0.4333,0.4309,0.3947,0.39,0.4136,0.412,0.4278,0.4277,0.4276,0.4275,0.4274,0,0.3042,0.3053,0.3143,0.3169,0.3215,0.3312,0.3371,0.3526,0.3596,0.3839,0.3876,0.4075,0.4154,0.4293,0.4267,0.4295,0.4341,0.3989,0.3848,0.4169,0.4151,0.4136,0.4122,0.3522,0.3516,0.351,0.3506,0,0.2985,0.3013,0.3056,0.3102,0.3161,0.3227,0.3326,0.3377,0.3561,0.3669,0.3802,0.391,0.4073,0.3965,0.403,0.3987,0.3968,0.3879,0.4344,0.3566,0.3468,0.3446,0.3455,0.3456,0.3461,0.3465,0.3468,0.347,0.2943,0.294,0.2988,0.3031,0.3083,0.3107,0.3115,0.3216,0.3294,0.3405,0.3597,0.3645,0.3721,0.3659,0.356,0.3488,0.3748,0.3561,0.3573,0.3592,0.349,0.3396,0.335,0.3354,0.3357,0.336,0.3363,0,0.2854,0.2877,0.2908,0.2926,0.2908,0.3003,0.3046,0.3008,0.3014,0.3165,0.3255,0.3056,0.3023,0.3095,0.2914,0.2925,0.2846,0.2801,0.2656,0.271,0.2757,0.2605,0.2234,0.223,0.2226,0.2223,0,0,0.2816,0.2801,0.2808,0.2747,0.2763,0.2712,0.2706,0.2656,0.2694,0.2656,0.2667,0.2929,0.3039,0.2605,0.2556,0.2358,0.2507,0.2269,0.3187,0.3074,0.3115,0.3225,0.3059,0,0,0,0,0]},{"header":{"parameterUnit":"m.s-1","parameterCategory":2,"la1":30.2991,"la2":30.254,"lo1":-89.0895,"lo2":-89.0444,"dy":0.0017,"dx":0.0017,"nx":28,"ny":28,"refTime":"2025-04-30T09:00:00:Z","depth":"2","parameterNumber":3,"parameterNumberName":"V-component_of_CURRENTS"},"data":[0,0,0,0,0,0,0,0,0,0,0,0,0,0,0,0,0,0,0,0,0,0,0,0,0,0,0,0,0,0,0,0,0,0,0,0,0,0,0,0,0,0,0,0,0,0,0,0,0,0,0,0,0,0,0,0,0,0,0.0199,0.0199,0,0.017,0.017,0.0169,0.0138,0.0138,0.0138,0.0138,0.0063,0.0061,0.0059,0,0,0,0,0,0,0,0,0,0,0,0,0,0.0158,0.0159,0.02,0.0199,0.0199,0.017,0.017,0.0169,0.0139,0.0138,0.0138,0.0138,0.0063,0.0061,0.0059,0,0,0,0,0,0,0,0,0,0,0,0,0,0.0155,0.016,0.02,0.0182,0.018,0.0171,0.017,0.0169,0.0139,0.0138,0.0138,0.0138,0.0064,0.0061,0.0059,0.0049,0,0,0.005,0.0049,0,0,0,0,0,0,0,0,0.0156,0.0157,0.0185,0.0183,0.0181,0.016,0.0128,0.0127,0.0139,0.0152,0.0138,0.0137,0.0092,0.0087,0.008,0.0046,0.0043,0.005,0.0049,0.0047,0.0047,0,0,0,0,0,0,0,0.0156,0.0157,0.0186,0.0185,0.0183,0.0152,0.0151,0.0127,0.0122,0.0151,0.0149,0.0149,0.0091,0.0083,0.0078,0.0041,0.005,0.0048,0.0046,0.0045,-0.0001,-0.0,0,0,0,0,0,0,0.0168,0.0158,0.0187,0.0185,0.017,0.0153,0.0152,0.0165,0.0123,0.0118,0.015,0.0148,0.0088,0.0081,0.0075,0.0081,0.0047,0.0045,0.0043,-0.0001,-0.0001,-0.0,0,0,0,0,0,0,0.0168,0.0172,0.0188,0.0172,0.0172,0.0155,0.0169,0.0165,0.016,0.0123,0.0116,0.015,0.0087,0.0079,0.0064,0.0077,0.0044,0.0041,-0.0002,-0.0001,-0.0001,0.0081,0,0,0,0,0,0,0.0167,0.0172,0.018,0.0173,0.0173,0.0194,0.0169,0.0165,0.0162,0.016,0.0121,0.0114,0.0086,0.0069,0.0062,0.0073,0.0039,-0.0002,-0.0001,-0.0001,0.0077,0.0084,0.0089,0,0,0,0,0,0.0166,0.0185,0.0181,0.0184,0.0188,0.0195,0.0192,0.0176,0.0163,0.0168,0.0143,0.0115,0.0068,0.0067,0.0059,0.007,-0.0002,-0.0002,-0.0001,0.0075,0.0083,0.0089,0,0,0,0,0,0,0.0169,0.0184,0.0179,0.0201,0.0202,0.019,0.0192,0.0182,0.0166,0.016,0.0122,0.0114,0.0104,0.0075,0.0075,0.0057,0.0027,0.0026,0.0087,0.0094,0.01,0.012,0.0037,0,0,0,0,0,0.0176,0.0196,0.0199,0.0216,0.0219,0.0206,0.0204,0.0196,0.0184,0.0176,0.0152,0.0122,0.0101,0.0089,0.0064,0.0057,0.0024,0.0056,0.0062,0.0067,0.0078,0.0043,0.0047,0.0002,0.0002,0.0002,0,0,0.0179,0.0191,0.02,0.0217,0.0214,0.0233,0.0204,0.021,0.0223,0.017,0.0175,0.0142,0.0103,0.0097,0.0089,0.0075,0.0061,0.0069,0.0074,0.0081,0.0044,0.0049,0.0053,0.0003,0.0003,0.0003,0,0,0.0206,0.021,0.0238,0.0246,0.0253,0.025,0.0257,0.0252,0.0246,0.0246,0.0211,0.0191,0.0158,0.0138,0.0122,0.0144,0.0094,0.0131,0.0179,0.0145,0.0149,0.0152,0.0114,0.0112,0.0134,0.0134,0.0134,0,0.0209,0.0251,0.0244,0.0274,0.0288,0.0265,0.0298,0.0291,0.0281,0.0282,0.0258,0.0218,0.018,0.0178,0.0183,0.0159,0.0129,0.0158,0.0155,0.0157,0.0158,0.0118,0.0116,0.0138,0.0138,0.0137,0.0137,0,0.0261,0.0291,0.0307,0.0343,0.0354,0.0377,0.0375,0.0378,0.0364,0.0355,0.0347,0.0297,0.0275,0.0256,0.0225,0.0222,0.0193,0.0167,0.0141,0.0168,0.0123,0.0119,0.0144,0.0143,0.0141,0.014,0,0,0.0285,0.0336,0.0343,0.0378,0.0396,0.0419,0.0435,0.0454,0.0479,0.0443,0.0467,0.0414,0.0382,0.0361,0.0317,0.0285,0.0261,0.0236,0.0232,0.0206,0.0183,0.015,0.0142,0.0235,0.0234,0.0234,0.0147,0,0.0331,0.0408,0.0415,0.0486,0.0529,0.0517,0.0544,0.0551,0.0543,0.0557,0.0497,0.0501,0.0424,0.0422,0.0373,0.0299,0.0254,0.0286,0.0153,0.0149,0.0124,0.0138,0.0164,0.0087,0.0142,0.0142,0.0141,0,0.0386,0.0437,0.0514,0.0581,0.0597,0.0628,0.0675,0.0699,0.0696,0.0689,0.0663,0.0619,0.0574,0.0505,0.0377,0.0401,0.0297,0.0226,0.022,0.0162,0.011,0.0068,0.0078,0.0134,0.0134,0.0135,0.0135,0,0.0431,0.0508,0.0577,0.0599,0.0663,0.0691,0.0723,0.0739,0.0786,0.0782,0.081,0.0728,0.0711,0.0573,0.0408,0.0397,0.0259,0.0224,0.0092,0.0088,0.007,0.0065,0.0124,0.0124,0.0124,0.0125,0.0125,0,0.0491,0.0548,0.0606,0.0649,0.0741,0.0757,0.0849,0.0859,0.0902,0.0979,0.0889,0.092,0.0729,0.0623,0.0449,0.0261,0.0282,0.0105,0.0067,0.0097,0.0096,0.0104,0.0103,0.0121,0.0122,0.0123,0.0123,0,0.0536,0.0569,0.0659,0.0736,0.0767,0.0836,0.0948,0.102,0.1039,0.1135,0.1145,0.1074,0.0943,0.0728,0.0511,0.0335,0.0147,0.0066,0.0111,0.0079,-0.0014,-0.001,-0.0075,-0.0077,-0.0079,-0.008,-0.0081,0,0.0571,0.0619,0.0726,0.0791,0.0832,0.094,0.1024,0.1083,0.1171,0.1238,0.1292,0.1198,0.115,0.0805,0.0487,0.0178,0.0135,-0.0016,-0.0036,-0.0002,-0.0033,-0.0026,-0.002,-0.0034,-0.0035,-0.0035,-0.0035,0,0.0636,0.0664,0.0742,0.0874,0.0973,0.1103,0.1224,0.1316,0.1402,0.1473,0.1538,0.1505,0.1193,0.0886,0.0452,0.0241,0.0036,-0.0035,-0.0006,0.0016,0.0031,0.0003,0.0008,-0.004,-0.0039,-0.0039,-0.0039,-0.0039,0.0682,0.0744,0.084,0.0971,0.1092,0.1247,0.1365,0.15,0.1645,0.1766,0.1718,0.1677,0.1319,0.0782,0.0396,-0.0001,0.0025,-0.0121,-0.0117,-0.0112,-0.0089,-0.0077,-0.0164,-0.0164,-0.0164,-0.0164,-0.0165,0,0.0741,0.0816,0.0935,0.1088,0.1223,0.1286,0.149,0.1603,0.1782,0.1885,0.1933,0.1595,0.1248,0.0836,0.0247,-0.0108,-0.0127,-0.0222,-0.0168,-0.0161,-0.0155,-0.0133,-0.022,-0.0221,-0.0222,-0.0223,0,0,0.0775,0.0889,0.0951,0.1169,0.1286,0.1484,0.1609,0.1767,0.188,0.1968,0.1959,0.1903,0.1389,0.0953,0.0463,0.0121,0.0065,0.0055,0.0139,0.0267,0.0277,-0.006,-0.0012,0,0,0,0,0]}],[{"header":{"parameterUnit":"m.s-1","parameterCategory":2,"la1":30.2991,"la2":30.254,"lo1":-89.0895,"lo2":-89.0444,"dy":0.0017,"dx":0.0017,"nx":28,"ny":28,"refTime":"2025-04-30T09:00:00:Z","depth":"4","parameterNumber":2,"parameterNumberName":"U-component_of_CURRENTS"},"data":[0,0,0,0,0,0,0,0,0,0,0,0,0,0,0,0,0,0,0,0,0,0,0,0,0,0,0,0,0,0,0,0,0,0,0,0,0,0,0,0,0,0,0,0,0,0,0,0,0,0,0,0,0,0,0,0,0,0,0.1963,0.1964,0,0.204,0.2041,0.2042,0.211,0.2111,0.2112,0.2113,0.221,0.2212,0.2213,0,0,0,0,0,0,0,0,0,0,0,0,0,0.1889,0.189,0.1963,0.1964,0.1965,0.204,0.2041,0.2042,0.211,0.2111,0.2112,0.2113,0.2209,0.2211,0.2213,0,0,0,0,0,0,0,0,0,0,0,0,0,0.1937,0.189,0.1963,0.201,0.2015,0.204,0.2041,0.2042,0.211,0.2111,0.2113,0.2114,0.2209,0.2211,0.2214,0.22,0,0,0.2221,0.2222,0,0,0,0,0,0,0,0,0.1934,0.194,0.2002,0.2007,0.2012,0.2069,0.205,0.2096,0.2109,0.2072,0.2113,0.2115,0.2165,0.2171,0.2179,0.2205,0.2209,0.2222,0.2223,0.2224,0.2225,0,0,0,0,0,0,0,0.1931,0.1937,0.1992,0.2003,0.2009,0.2032,0.204,0.2059,0.2108,0.2075,0.2081,0.2092,0.2168,0.2177,0.2182,0.221,0.2221,0.2224,0.2225,0.2226,0.2368,0.237,0,0,0,0,0,0,0.1923,0.1933,0.1989,0.1994,0.1978,0.2032,0.2041,0.2048,0.2108,0.2119,0.209,0.2095,0.2172,0.2179,0.2186,0.2293,0.2224,0.2226,0.2228,0.2366,0.2368,0.2371,0,0,0,0,0,0,0.1921,0.1927,0.1986,0.1967,0.1977,0.2032,0.2039,0.2048,0.2102,0.2119,0.2131,0.2139,0.2173,0.2182,0.2247,0.2293,0.2228,0.223,0.2363,0.2367,0.237,0.243,0,0,0,0,0,0,0.1918,0.1925,0.1949,0.1967,0.1978,0.2028,0.2038,0.2049,0.2104,0.2112,0.2164,0.2172,0.2175,0.2244,0.225,0.2295,0.2232,0.236,0.2365,0.2369,0.2425,0.2435,0.2444,0,0,0,0,0,0.1915,0.1933,0.195,0.1958,0.2001,0.2029,0.2038,0.208,0.2106,0.2133,0.2176,0.2172,0.2275,0.2247,0.2254,0.2301,0.2358,0.2363,0.2368,0.2421,0.2433,0.2444,0,0,0,0,0,0,0.1918,0.1942,0.1961,0.1989,0.2021,0.2043,0.2078,0.2103,0.2157,0.218,0.2196,0.2207,0.2282,0.2284,0.2253,0.2356,0.2318,0.2325,0.2356,0.2367,0.2376,0.2381,0.2234,0,0,0,0,0,0.1927,0.195,0.1975,0.2004,0.2022,0.2058,0.2085,0.2113,0.2152,0.218,0.2216,0.226,0.2299,0.2329,0.236,0.2412,0.2423,0.2449,0.2458,0.2466,0.2476,0.2543,0.2559,0.2388,0.2388,0.2387,0,0,0.1938,0.1956,0.1971,0.2008,0.2038,0.207,0.2079,0.213,0.2172,0.218,0.2264,0.2295,0.2321,0.2385,0.2418,0.2398,0.2519,0.2472,0.2479,0.2485,0.255,0.2567,0.2581,0.2391,0.239,0.239,0,0,0.1953,0.1987,0.2007,0.2037,0.2088,0.211,0.2134,0.2181,0.2224,0.2292,0.2315,0.2377,0.2436,0.2466,0.2485,0.2563,0.2566,0.2581,0.2633,0.2698,0.2712,0.2725,0.275,0.2764,0.2586,0.2586,0.2586,0,0.1972,0.1992,0.2021,0.205,0.2082,0.2132,0.2165,0.2211,0.228,0.2323,0.2334,0.2453,0.2473,0.2551,0.2581,0.2584,0.2612,0.2585,0.2709,0.2722,0.2734,0.2757,0.2772,0.259,0.2589,0.2589,0.2589,0,0.1985,0.2023,0.2042,0.2092,0.2133,0.2173,0.223,0.2294,0.2354,0.2399,0.2506,0.2543,0.2617,0.2632,0.2631,0.2733,0.272,0.2711,0.2677,0.2755,0.2774,0.2789,0.2595,0.2593,0.2592,0.2591,0,0,0.1965,0.2035,0.2048,0.2079,0.216,0.2189,0.2277,0.2357,0.2429,0.2511,0.26,0.2676,0.2719,0.2744,0.2762,0.2812,0.2911,0.2807,0.2808,0.2823,0.3043,0.2853,0.285,0.2935,0.2938,0.2941,0.3016,0,0.1971,0.2019,0.2061,0.2129,0.2158,0.2239,0.2311,0.2402,0.249,0.2591,0.2663,0.2755,0.2755,0.2805,0.2864,0.2912,0.2957,0.289,0.2972,0.2974,0.2789,0.2863,0.2951,0.3027,0.303,0.3033,0.3035,0,0.1958,0.1996,0.2054,0.2143,0.2167,0.2227,0.2359,0.2434,0.2584,0.2658,0.2775,0.2837,0.2952,0.2926,0.3061,0.3028,0.3046,0.3061,0.3065,0.2877,0.2811,0.2937,0.3061,0.3059,0.3057,0.3055,0.3054,0,0.1903,0.1988,0.2035,0.2067,0.2178,0.2242,0.232,0.2465,0.2546,0.272,0.2799,0.294,0.3026,0.3097,0.3154,0.3129,0.3272,0.3235,0.3072,0.3058,0.3178,0.3164,0.3313,0.3313,0.3312,0.3312,0.3312,0,0.1862,0.1906,0.2022,0.2047,0.2127,0.2223,0.2335,0.244,0.2596,0.2688,0.284,0.2923,0.308,0.3175,0.32,0.3188,0.3321,0.3091,0.3074,0.3199,0.3187,0.3188,0.3172,0.3315,0.3314,0.3314,0.3313,0,0.1783,0.1857,0.1922,0.2052,0.2101,0.2166,0.2332,0.2403,0.2573,0.2701,0.2763,0.2959,0.3081,0.319,0.3304,0.3224,0.3239,0.3191,0.332,0.3307,0.2964,0.2951,0.3011,0.3005,0.3,0.2996,0.2992,0,0.1737,0.1765,0.1914,0.1955,0.2021,0.2134,0.2202,0.238,0.245,0.2689,0.2724,0.2915,0.302,0.3039,0.3163,0.32,0.3158,0.3131,0.3037,0.296,0.2939,0.2934,0.2928,0.2984,0.2983,0.2982,0.298,0,0.1654,0.173,0.1779,0.1873,0.1953,0.2026,0.2138,0.2174,0.2366,0.2544,0.2632,0.2706,0.2829,0.2922,0.2976,0.2992,0.3136,0.3078,0.3087,0.2998,0.2929,0.2911,0.2911,0.2963,0.2965,0.2967,0.2968,0,0.1599,0.1614,0.1697,0.1759,0.1852,0.1881,0.196,0.2035,0.2131,0.2382,0.2409,0.2614,0.2799,0.2814,0.2867,0.2875,0.282,0.271,0.2737,0.2758,0.2641,0.2514,0.2415,0,0,0,0,0,0.1536,0.1528,0.1573,0.1626,0.171,0.1767,0.1893,0.1972,0.2158,0.2157,0.2277,0.238,0.2474,0.2586,0.2544,0.2747,0.2825,0.2682,0.271,0.2867,0.2887,0.2773,0,0,0,0,0,0,0.1485,0.1521,0.1522,0.1499,0.1513,0.1586,0.1659,0.1782,0.1791,0.1998,0.207,0.2231,0.2367,0.2482,0.25,0.2531,0.2495,0.2814,0.2807,0.2856,0.2874,0.289,0.278,0,0,0,0,0]},{"header":{"parameterUnit":"m.s-1","parameterCategory":2,"la1":30.2991,"la2":30.254,"lo1":-89.0895,"lo2":-89.0444,"dy":0.0017,"dx":0.0017,"nx":28,"ny":28,"refTime":"2025-04-30T09:00:00:Z","depth":"4","parameterNumber":3,"parameterNumberName":"V-component_of_CURRENTS"},"data":[0,0,0,0,0,0,0,0,0,0,0,0,0,0,0,0,0,0,0,0,0,0,0,0,0,0,0,0,0,0,0,0,0,0,0,0,0,0,0,0,0,0,0,0,0,0,0,0,0,0,0,0,0,0,0,0,0,0,0.0136,0.0136,0,0.0118,0.0118,0.0118,0.0098,0.0097,0.0097,0.0097,0.0042,0.0041,0.004,0,0,0,0,0,0,0,0,0,0,0,0,0,0.0104,0.0105,0.0136,0.0136,0.0136,0.0119,0.0118,0.0118,0.0098,0.0097,0.0097,0.0097,0.0043,0.0041,0.004,0,0,0,0,0,0,0,0,0,0,0,0,0,0.0105,0.0106,0.0136,0.0124,0.0123,0.0119,0.0118,0.0118,0.0098,0.0097,0.0097,0.0097,0.0043,0.0041,0.0039,0.0034,0,0,0.0034,0.0033,0,0,0,0,0,0,0,0,0.0105,0.0106,0.0126,0.0125,0.0124,0.0111,0.0087,0.0088,0.0098,0.0106,0.0097,0.0097,0.0063,0.0059,0.0055,0.0031,0.0029,0.0033,0.0032,0.0032,0.0031,0,0,0,0,0,0,0,0.0105,0.0106,0.0128,0.0126,0.0125,0.0104,0.0104,0.0087,0.0085,0.0105,0.0104,0.0104,0.0062,0.0057,0.0054,0.0028,0.0034,0.0032,0.0031,0.003,0.0001,0.0001,0,0,0,0,0,0,0.0112,0.0106,0.0128,0.0127,0.0115,0.0105,0.0105,0.0114,0.0086,0.0082,0.0105,0.0103,0.0061,0.0056,0.0052,0.0061,0.0032,0.003,0.0029,0.0,0.0001,0.0001,0,0,0,0,0,0,0.0112,0.0115,0.0129,0.0117,0.0117,0.0106,0.0117,0.0114,0.0113,0.0086,0.0081,0.0106,0.006,0.0055,0.0046,0.0058,0.0029,0.0027,-0.0,0.0,0.0001,0.0067,0,0,0,0,0,0,0.0111,0.0115,0.0122,0.0118,0.0118,0.0135,0.0117,0.0114,0.0114,0.0112,0.0085,0.008,0.006,0.0049,0.0044,0.0054,0.0026,-0.0001,0.0,0.0001,0.0064,0.007,0.0074,0,0,0,0,0,0.011,0.0125,0.0123,0.0125,0.013,0.0136,0.0134,0.0124,0.0114,0.012,0.0102,0.0081,0.0049,0.0048,0.0042,0.0052,-0.0001,-0.0,0.0001,0.0062,0.0069,0.0074,0,0,0,0,0,0,0.0113,0.0124,0.0122,0.0139,0.0141,0.0133,0.0135,0.0128,0.0119,0.0115,0.0087,0.0081,0.0077,0.0054,0.0053,0.0045,0.002,0.0019,0.0068,0.0074,0.0079,0.009,0.0024,0,0,0,0,0,0.0119,0.0134,0.0137,0.015,0.0153,0.0145,0.0144,0.014,0.0131,0.0127,0.011,0.0089,0.0075,0.0068,0.005,0.0047,0.0013,0.0048,0.0053,0.0058,0.0062,0.0024,0.0026,0.0004,0.0004,0.0004,0,0,0.0122,0.0131,0.0138,0.0152,0.015,0.0166,0.0144,0.015,0.0162,0.0122,0.013,0.0106,0.0078,0.0076,0.0072,0.006,0.0045,0.0059,0.0063,0.0065,0.0025,0.0027,0.0029,0.0004,0.0004,0.0004,0,0,0.0142,0.0146,0.0167,0.0174,0.0181,0.018,0.0185,0.0183,0.0181,0.0185,0.0159,0.0145,0.0125,0.011,0.0098,0.0119,0.0072,0.0111,0.0147,0.011,0.0112,0.0113,0.0069,0.0065,0.0114,0.0114,0.0114,0,0.0145,0.0176,0.0172,0.0195,0.0207,0.0192,0.0217,0.0214,0.021,0.021,0.0195,0.0167,0.0142,0.014,0.0147,0.0131,0.0098,0.0129,0.0117,0.0118,0.0117,0.0072,0.0067,0.0117,0.0117,0.0117,0.0116,0,0.0182,0.0206,0.0218,0.0247,0.0257,0.0276,0.0277,0.0281,0.0274,0.0268,0.0262,0.0229,0.0212,0.0201,0.0181,0.0173,0.0146,0.0128,0.0105,0.0124,0.0074,0.0068,0.0122,0.0121,0.012,0.0119,0,0,0.0198,0.0239,0.0244,0.027,0.0289,0.0306,0.0323,0.0337,0.0352,0.0332,0.0343,0.0315,0.0291,0.0276,0.0245,0.0215,0.0183,0.0177,0.0173,0.0138,0.0094,0.0078,0.007,0.0163,0.0163,0.0162,0.0059,0,0.0232,0.0289,0.0298,0.0352,0.0383,0.0378,0.0402,0.0408,0.0402,0.0405,0.0363,0.0363,0.0321,0.0317,0.0279,0.0212,0.0171,0.0212,0.0077,0.0073,0.006,0.0064,0.016,0.0054,0.0053,0.0052,0.0051,0,0.0269,0.0307,0.0366,0.0418,0.043,0.0458,0.0491,0.0512,0.0503,0.0497,0.0475,0.0439,0.04,0.0359,0.0248,0.0276,0.019,0.013,0.0124,0.0083,0.0046,0.003,0.0039,0.004,0.0041,0.0042,0.0043,0,0.0294,0.0355,0.0408,0.0426,0.0478,0.0501,0.0528,0.0539,0.0571,0.0557,0.0565,0.0503,0.0482,0.0372,0.0246,0.0245,0.0111,0.009,-0.001,-0.0013,0.0003,0.0003,-0.0001,-0.0001,-0.0001,-0.0,-0.0,0,0.0331,0.0375,0.0427,0.0459,0.053,0.0547,0.0615,0.0622,0.0647,0.0688,0.0621,0.0627,0.0486,0.0392,0.0261,0.0111,0.0117,-0.0005,-0.0038,0.0032,0.0036,-0.0002,-0.0001,-0.0004,-0.0003,-0.0003,-0.0002,0,0.0353,0.0385,0.0453,0.0517,0.0546,0.0598,0.0687,0.0736,0.0743,0.0788,0.0788,0.0722,0.0603,0.0441,0.0261,0.0144,-0.0007,-0.0068,0.0017,-0.001,-0.0115,-0.0109,-0.0188,-0.019,-0.0191,-0.0192,-0.0193,0,0.037,0.0407,0.0498,0.055,0.0586,0.0671,0.0738,0.0784,0.0838,0.0849,0.0871,0.0774,0.0703,0.0448,0.0265,0.0004,-0.0036,-0.0129,-0.0122,-0.0108,-0.0133,-0.0125,-0.0118,-0.0194,-0.0195,-0.0195,-0.0195,0,0.0404,0.0433,0.0491,0.0599,0.0679,0.0779,0.0869,0.0916,0.0964,0.0965,0.0947,0.081,0.0669,0.0464,0.0256,0.0069,-0.0073,-0.0141,-0.014,-0.0135,-0.0117,-0.0138,-0.013,-0.0199,-0.0199,-0.0198,-0.0198,0,0.0427,0.047,0.0547,0.0644,0.0751,0.0856,0.0904,0.097,0.1023,0.1022,0.1015,0.0856,0.077,0.0496,0.0309,0.012,0.0066,-0.0006,-0.0013,-0.0011,0.0067,0.0118,0.008,0,0,0,0,0,0.0451,0.0504,0.0591,0.07,0.0807,0.0873,0.0982,0.1021,0.1059,0.1058,0.104,0.0907,0.0637,0.0531,0.034,0.0266,0.0017,0.0032,-0.0072,-0.0221,-0.0217,-0.0157,0,0,0,0,0,0,0.0466,0.0546,0.0591,0.0732,0.0813,0.094,0.1013,0.1041,0.1044,0.1045,0.092,0.0842,0.0593,0.0748,0.0332,0.0274,0.0176,-0.0092,-0.0097,-0.0224,-0.022,-0.0216,-0.0153,0,0,0,0,0]}]]